This is the latest recevied weather packets stored in our database for station/object NB9X. If no packets are shown the sender has not sent any weather packets the latest 10 day(s).
| Time | Temp. | Humidity | Pressure | Rain* | Wind** | Luminosity | Snow |
|---|---|---|---|---|---|---|---|
| 1788637757 | 34.44° C | 100% | 1012 hPa | 0 mm | - | - | - |
| 1788637457 | 35° C | 100% | 1012 hPa | 0 mm | - | - | - |
| 1788637157 | 34.44° C | 100% | 1012.2 hPa | 0 mm | - | - | - |
| 1788636857 | 34.44° C | 100% | 1012.2 hPa | 0 mm | - | - | - |
| 1788636557 | 35° C | 100% | 1012.2 hPa | 0 mm | - | - | - |
| 1788636257 | 34.44° C | 100% | 1012.3 hPa | 0 mm | - | - | - |
| 1788635957 | 34.44° C | 100% | 1012.2 hPa | 0 mm | - | - | - |
| 1788635657 | 33.89° C | 100% | 1012.3 hPa | 0 mm | - | - | - |
| 1788635357 | 33.89° C | 100% | 1012.2 hPa | 0 mm | - | - | - |
| 1788635057 | 34.44° C | 100% | 1012.3 hPa | 0 mm | - | - | - |
| 1788634757 | 33.33° C | 100% | 1012.3 hPa | 0 mm | - | - | - |
| 1788634457 | 33.89° C | 100% | 1012.3 hPa | 0 mm | - | - | - |
| 1788634157 | 33.89° C | 100% | 1012.3 hPa | 0 mm | - | - | - |
| 1788633857 | 32.78° C | 100% | 1012.3 hPa | 0 mm | - | - | - |
| 1788633557 | 34.44° C | 100% | 1012.4 hPa | 0 mm | - | - | - |
| 1788633257 | 33.89° C | 100% | 1012.4 hPa | 0 mm | - | - | - |
| 1788632957 | 33.89° C | 100% | 1012.5 hPa | 0 mm | - | - | - |
| 1788632657 | 33.33° C | 100% | 1012.6 hPa | 0 mm | - | - | - |
| 1788632357 | 33.89° C | 100% | 1012.5 hPa | 0 mm | - | - | - |
| 1788632057 | 34.44° C | 100% | 1012.6 hPa | 0 mm | - | - | - |
| 1788631757 | 34.44° C | 100% | 1012.7 hPa | 0 mm | - | - | - |
| 1788631457 | 33.33° C | 100% | 1012.8 hPa | 0 mm | - | - | - |
| 1788631157 | 35° C | 100% | 1012.8 hPa | 0 mm | - | - | - |
| 1788630857 | 33.89° C | 100% | 1012.8 hPa | 0 mm | - | - | - |
| 1788630557 | 34.44° C | 100% | 1012.8 hPa | 0 mm | - | - | - |
* Rain latest hour (hover to see other rain measurements)
** Current wind speed in m/s (hover to see current wind gust speed)